,,Stat6,,Stat2,,Stat8,,Stat9,,Stat10,,Wind1,,Wind1,
time,status,PA1M_AVG,status,PR1M_SUM,status,RH1M_AVG,status,SR1M_AVG,status,TA1M_AVG,status,W1dAve1m,status,W1sAve1m,
2009-06-11, 00:00:00,VALID,918.942,VALID,0,VALID,100,VALID,-0.0509425,VALID,19.8563,VALID,33,VALID,0,
2009-06-11, 00:01:00,VALID,918.94,VALID,0,VALID,100,VALID,-0.0679233,VALID,19.8571,VALID,51,VALID,0,
2009-06-11, 00:02:00,VALID,918.922,VALID,0,VALID,100,VALID,-0.0849042,VALID,19.8381,VALID,67,VALID,0,
2009-06-11, 00:03:00,VALID,918.908,VALID,0,VALID,100,VALID,-0.0339617,VALID,19.8211,VALID,74,VALID,0,
2009-06-11, 00:04:00,VALID,918.918,VALID,0,VALID,100,VALID,-0.0679233,VALID,19.8151,VALID,74,VALID,0,
2009-06-11, 00:05:00,VALID,918.9,VALID,0,VALID,100,VALID,-0.101885,VALID,19.8149,VALID,74,VALID,0,
2009-06-11, 00:06:00,VALID,918.901,VALID,0,VALID,100,VALID,-0.118866,VALID,19.8154,VALID,74,VALID,0,
2009-06-11, 00:07:00,VALID,918.896,VALID,0,VALID,100,VALID,-0.0849042,VALID,19.8089,VALID,74,VALID,0,
2009-06-11, 00:08:00,VALID,918.884,VALID,0,VALID,100,VALID,-0.101885,VALID,19.8059,VALID,74,VALID,0,
2009-06-11, 00:09:00,VALID,918.884,VALID,0,VALID,100,VALID,-0.0849042,VALID,19.7794,VALID,74,VALID,0,
2009-06-11, 00:10:00,VALID,918.872,VALID,0,VALID,100,VALID,-0.0849042,VALID,19.76,VALID,74,VALID,0,
2009-06-11, 00:11:00,VALID,918.867,VALID,0,VALID,100,VALID,-0.0849042,VALID,19.7402,VALID,104,VALID,0,
2009-06-11, 00:12:00,VALID,918.855,VALID,0,VALID,100,VALID,-0.118866,VALID,19.7178,VALID,122,VALID,0,
2009-06-11, 00:13:00,VALID,918.853,VALID,0,VALID,100,VALID,-0.101885,VALID,19.715,VALID,129,VALID,0,
2009-06-11, 00:14:00,VALID,918.843,VALID,0,VALID,100,VALID,-0.101885,VALID,19.7183,VALID,127,VALID,0,
2009-06-11, 00:15:00,VALID,918.846,VALID,0,VALID,100,VALID,-0.101885,VALID,19.7053,VALID,119,VALID,0,
2009-06-11, 00:16:00,VALID,918.841,VALID,0,VALID,100,VALID,-0.101885,VALID,19.6661,VALID,119,VALID,0,
2009-06-11, 00:17:00,VALID,918.857,VALID,0,VALID,100,VALID,-0.118866,VALID,19.6561,VALID,119,VALID,0,
2009-06-11, 00:18:00,VALID,918.865,VALID,0,VALID,100,VALID,-0.101885,VALID,19.6531,VALID,119,VALID,0,
2009-06-11, 00:19:00,VALID,918.884,VALID,0,VALID,100,VALID,-0.101885,VALID,19.6369,VALID,119,VALID,0,
2009-06-11, 00:20:00,VALID,918.904,VALID,0,VALID,100,VALID,-0.101885,VALID,19.6334,VALID,119,VALID,0,
2009-06-11, 00:21:00,VALID,918.893,VALID,0,VALID,100,VALID,-0.101885,VALID,19.6107,VALID,119,VALID,0,
2009-06-11, 00:22:00,VALID,918.89,VALID,0,VALID,100,VALID,-0.0679233,VALID,19.5745,VALID,119,VALID,0,
2009-06-11, 00:23:00,VALID,918.864,VALID,0,VALID,100,VALID,-0.101885,VALID,19.549,VALID,121,VALID,0,
2009-06-11, 00:24:00,VALID,918.853,VALID,0,VALID,100,VALID,-0.101885,VALID,19.5366,VALID,145,VALID,0,
2009-06-11, 00:25:00,VALID,918.846,VALID,0,VALID,100,VALID,-0.0849042,VALID,19.5485,VALID,146,VALID,0,
2009-06-11, 00:26:00,VALID,918.828,VALID,0,VALID,100,VALID,-0.0509425,VALID,19.5423,VALID,145,VALID,0,
2009-06-11, 00:27:00,VALID,918.832,VALID,0,VALID,100,VALID,-0.101885,VALID,19.5525,VALID,142,VALID,0,
2009-06-11, 00:28:00,VALID,918.807,VALID,0,VALID,100,VALID,-0.118866,VALID,19.543,VALID,143,VALID,0,
2009-06-11, 00:29:00,VALID,918.806,VALID,0,VALID,100,VALID,-0.0849042,VALID,19.5391,VALID,142,VALID,0,
2009-06-11, 00:30:00,VALID,918.821,VALID,0,VALID,100,VALID,-0.101885,VALID,19.5358,VALID,151,VALID,0,
2009-06-11, 00:31:00,VALID,918.822,VALID,0,VALID,100,VALID,-0.0679233,VALID,19.5231,VALID,162,VALID,0,
2009-06-11, 00:32:00,VALID,918.813,VALID,0,VALID,100,VALID,-0.0339617,VALID,19.5094,VALID,161,VALID,0,
2009-06-11, 00:33:00,VALID,918.809,VALID,0,VALID,100,VALID,-0.0509425,VALID,19.4994,VALID,163,VALID,0,
2009-06-11, 00:34:00,VALID,918.775,VALID,0,VALID,100,VALID,-0.0339617,VALID,19.4866,VALID,160,VALID,0,
2009-06-11, 00:35:00,VALID,918.762,VALID,0,VALID,100,VALID,-0.0849042,VALID,19.4707,VALID,155,VALID,0,
2009-06-11, 00:36:00,VALID,918.722,VALID,0,VALID,100,VALID,-0.0849042,VALID,19.4614,VALID,161,VALID,0,
2009-06-11, 00:37:00,VALID,918.684,VALID,0,VALID,100,VALID,-0.101885,VALID,19.4452,VALID,163,VALID,0,
2009-06-11, 00:38:00,VALID,918.646,VALID,0,VALID,100,VALID,-0.0339617,VALID,19.4477,VALID,160,VALID,0,
2009-06-11, 00:39:00,VALID,918.621,VALID,0,VALID,100,VALID,-0.101885,VALID,19.4672,VALID,161,VALID,0,
2009-06-11, 00:40:00,VALID,918.587,VALID,0,VALID,100,VALID,-0.0339617,VALID,19.4737,VALID,150,VALID,0,
2009-06-11, 00:41:00,VALID,918.555,VALID,0,VALID,100,VALID,-0.0849042,VALID,19.4901,VALID,159,VALID,0,
2009-06-11, 00:42:00,VALID,918.528,VALID,0,VALID,100,VALID,0.0169808,VALID,19.4822,VALID,154,VALID,0,
2009-06-11, 00:43:00,VALID,918.509,VALID,0,VALID,100,VALID,0.0339617,VALID,19.4527,VALID,153,VALID,0,
2009-06-11, 00:44:00,VALID,918.504,VALID,0,VALID,100,VALID,0.0169808,VALID,19.4365,VALID,147,VALID,0,
2009-06-11, 00:45:00,VALID,918.501,VALID,0,VALID,100,VALID,0.0849042,VALID,19.4135,VALID,145,VALID,0,
2009-06-11, 00:46:00,VALID,918.505,VALID,0,VALID,100,VALID,0.0509425,VALID,19.4006,VALID,143,VALID,0,
2009-06-11, 00:47:00,VALID,918.505,VALID,0,VALID,100,VALID,0.0339617,VALID,19.3911,VALID,141,VALID,0,
2009-06-11, 00:48:00,VALID,918.505,VALID,0,VALID,100,VALID,0.0509425,VALID,19.3878,VALID,135,VALID,0,
2009-06-11, 00:49:00,VALID,918.516,VALID,0,VALID,100,VALID,0.0339617,VALID,19.3814,VALID,135,VALID,0,
2009-06-11, 00:50:00,VALID,918.524,VALID,0,VALID,100,VALID,0,VALID,19.3786,VALID,132,VALID,0,
2009-06-11, 00:51:00,VALID,918.528,VALID,0,VALID,100,VALID,0.0169808,VALID,19.3848,VALID,128,VALID,0,
2009-06-11, 00:52:00,VALID,918.517,VALID,0,VALID,100,VALID,0.0169808,VALID,19.3916,VALID,128,VALID,0,
2009-06-11, 00:53:00,VALID,918.514,VALID,0,VALID,100,VALID,0,VALID,19.3981,VALID,129,VALID,0,
2009-06-11, 00:54:00,VALID,918.502,VALID,0,VALID,100,VALID,0,VALID,19.3651,VALID,129,VALID,0,
2009-06-11, 00:55:00,VALID,918.501,VALID,0,VALID,100,VALID,0.0849042,VALID,19.3424,VALID,126,VALID,0,
2009-06-11, 00:56:00,VALID,918.496,VALID,0,VALID,100,VALID,0.0509425,VALID,19.3297,VALID,127,VALID,0,
2009-06-11, 00:57:00,VALID,918.471,VALID,0,VALID,100,VALID,-0.0509425,VALID,19.3342,VALID,130,VALID,0,
2009-06-11, 00:58:00,VALID,918.453,VALID,0,VALID,100,VALID,-0.0849042,VALID,19.3342,VALID,135,VALID,0,
2009-06-11, 00:59:00,VALID,918.444,VALID,0,VALID,100,VALID,-0.0849042,VALID,19.3439,VALID,143,VALID,0,
2009-06-11, 01:00:00,VALID,918.443,VALID,0,VALID,100,VALID,-0.0849042,VALID,19.3471,VALID,120,VALID,0,
2009-06-11, 01:01:00,VALID,918.46,VALID,0,VALID,100,VALID,-0.0339617,VALID,19.3372,VALID,115,VALID,0,
2009-06-11, 01:02:00,VALID,918.45,VALID,0,VALID,100,VALID,-0.0679233,VALID,19.3242,VALID,113,VALID,0,
2009-06-11, 01:03:00,VALID,918.456,VALID,0,VALID,100,VALID,-0.0339617,VALID,19.3239,VALID,122,VALID,0,
2009-06-11, 01:04:00,VALID,918.457,VALID,0,VALID,100,VALID,-0.0849042,VALID,19.3144,VALID,120,VALID,0,
2009-06-11, 01:05:00,VALID,918.438,VALID,0,VALID,100,VALID,-0.0679233,VALID,19.289,VALID,117,VALID,0,
2009-06-11, 01:06:00,VALID,918.433,VALID,0,VALID,100,VALID,-0.0339617,VALID,19.2368,VALID,117,VALID,0,
2009-06-11, 01:07:00,VALID,918.419,VALID,0,VALID,100,VALID,-0.0339617,VALID,19.1844,VALID,119,VALID,0,
2009-06-11, 01:08:00,VALID,918.414,VALID,0,VALID,100,VALID,-0.0169808,VALID,19.142,VALID,119,VALID,0,
2009-06-11, 01:09:00,VALID,918.408,VALID,0,VALID,100,VALID,-0.0509425,VALID,19.1101,VALID,119,VALID,0,
2009-06-11, 01:10:00,VALID,918.404,VALID,0,VALID,100,VALID,-0.0849042,VALID,19.0973,VALID,119,VALID,0,
2009-06-11, 01:11:00,VALID,918.405,VALID,0,VALID,100,VALID,-0.0679233,VALID,19.0973,VALID,119,VALID,0,
2009-06-11, 01:12:00,VALID,918.408,VALID,0,VALID,100,VALID,0.0169808,VALID,19.0799,VALID,119,VALID,0,
2009-06-11, 01:13:00,VALID,918.407,VALID,0,VALID,100,VALID,0,VALID,19.0732,VALID,123,VALID,0,
2009-06-11, 01:14:00,VALID,918.4,VALID,0,VALID,100,VALID,0.0169808,VALID,19.0764,VALID,135,VALID,0,
2009-06-11, 01:15:00,VALID,918.383,VALID,0,VALID,100,VALID,0,VALID,19.0864,VALID,148,VALID,0,
2009-06-11, 01:16:00,VALID,918.358,VALID,0,VALID,100,VALID,0.0169808,VALID,19.1001,VALID,149,VALID,0,
2009-06-11, 01:17:00,VALID,918.34,VALID,0,VALID,100,VALID,0,VALID,19.0864,VALID,145,VALID,0,
2009-06-11, 01:18:00,VALID,918.314,VALID,0,VALID,100,VALID,0.0169808,VALID,19.0959,VALID,154,VALID,0,
2009-06-11, 01:19:00,VALID,918.287,VALID,0,VALID,100,VALID,0,VALID,19.1283,VALID,157,VALID,0,
2009-06-11, 01:20:00,VALID,918.267,VALID,0,VALID,100,VALID,0,VALID,19.1383,VALID,157,VALID,0,
2009-06-11, 01:21:00,VALID,918.249,VALID,0,VALID,100,VALID,0.0169808,VALID,19.135,VALID,158,VALID,0,
2009-06-11, 01:22:00,VALID,918.241,VALID,0,VALID,100,VALID,0,VALID,19.1218,VALID,158,VALID,0,
2009-06-11, 01:23:00,VALID,918.23,VALID,0,VALID,100,VALID,0,VALID,19.1024,VALID,161,VALID,0,
2009-06-11, 01:24:00,VALID,918.238,VALID,0,VALID,100,VALID,-0.0169808,VALID,19.148,VALID,161,VALID,0,
2009-06-11, 01:25:00,VALID,918.237,VALID,0,VALID,100,VALID,0,VALID,19.168,VALID,158,VALID,0,
2009-06-11, 01:26:00,VALID,918.223,VALID,0,VALID,100,VALID,-0.0169808,VALID,19.1443,VALID,157,VALID,0,
2009-06-11, 01:27:00,VALID,918.214,VALID,0,VALID,100,VALID,0.0169808,VALID,19.1772,VALID,157,VALID,0,
2009-06-11, 01:28:00,VALID,918.204,VALID,0,VALID,100,VALID,0.0509425,VALID,19.1962,VALID,158,VALID,0,
2009-06-11, 01:29:00,VALID,918.189,VALID,0,VALID,100,VALID,0.0339617,VALID,19.2027,VALID,159,VALID,0,
2009-06-11, 01:30:00,VALID,918.178,VALID,0,VALID,100,VALID,0.0169808,VALID,19.2094,VALID,159,VALID,0,
2009-06-11, 01:31:00,VALID,918.166,VALID,0,VALID,100,VALID,0,VALID,19.2062,VALID,159,VALID,0,
2009-06-11, 01:32:00,VALID,918.158,VALID,0,VALID,100,VALID,0,VALID,19.1672,VALID,152,VALID,0,
2009-06-11, 01:33:00,VALID,918.143,VALID,0,VALID,100,VALID,0.0169808,VALID,19.1668,VALID,144,VALID,0,
2009-06-11, 01:34:00,VALID,918.132,VALID,0,VALID,100,VALID,0,VALID,19.1934,VALID,141,VALID,0,
2009-06-11, 01:35:00,VALID,918.102,VALID,0,VALID,100,VALID,0,VALID,19.1902,VALID,141,VALID,0,
2009-06-11, 01:36:00,VALID,918.083,VALID,0,VALID,100,VALID,0.0169808,VALID,19.2099,VALID,141,VALID,0,
2009-06-11, 01:37:00,VALID,918.076,VALID,0,VALID,100,VALID,0.0339617,VALID,19.2029,VALID,141,VALID,0,
2009-06-11, 01:38:00,VALID,918.068,VALID,0,VALID,100,VALID,0,VALID,19.1867,VALID,141,VALID,0,
2009-06-11, 01:39:00,VALID,918.047,VALID,0,VALID,100,VALID,0.0169808,VALID,19.18,VALID,132,VALID,0,
2009-06-11, 01:40:00,VALID,918.032,VALID,0,VALID,100,VALID,0.0339617,VALID,19.1742,VALID,143,VALID,0,
2009-06-11, 01:41:00,VALID,918.021,VALID,0,VALID,100,VALID,0,VALID,19.1934,VALID,163,VALID,0,
2009-06-11, 01:42:00,VALID,918.018,VALID,0,VALID,100,VALID,0,VALID,19.2004,VALID,163,VALID,0,
2009-06-11, 01:43:00,VALID,918.019,VALID,0,VALID,100,VALID,0,VALID,19.1835,VALID,157,VALID,0,
2009-06-11, 01:44:00,VALID,918.01,VALID,0,VALID,100,VALID,0,VALID,19.177,VALID,152,VALID,0,
2009-06-11, 01:45:00,VALID,917.992,VALID,0,VALID,100,VALID,0.0339617,VALID,19.1543,VALID,150,VALID,0,
2009-06-11, 01:46:00,VALID,917.987,VALID,0,VALID,100,VALID,0.0169808,VALID,19.1475,VALID,159,VALID,0,
2009-06-11, 01:47:00,VALID,917.974,VALID,0,VALID,100,VALID,0.0339617,VALID,19.1121,VALID,157,VALID,0,
2009-06-11, 01:48:00,VALID,917.965,VALID,0,VALID,100,VALID,-0.0169808,VALID,19.0799,VALID,149,VALID,0,
2009-06-11, 01:49:00,VALID,917.95,VALID,0,VALID,100,VALID,0,VALID,19.044,VALID,147,VALID,0,
2009-06-11, 01:50:00,VALID,917.935,VALID,0,VALID,100,VALID,0,VALID,19.0048,VALID,143,VALID,0,
2009-06-11, 01:51:00,VALID,917.941,VALID,0,VALID,100,VALID,0.0679233,VALID,18.9599,VALID,140,VALID,0,
2009-06-11, 01:52:00,VALID,917.945,VALID,0,VALID,100,VALID,0,VALID,18.8883,VALID,133,VALID,0,
2009-06-11, 01:53:00,VALID,917.957,VALID,0,VALID,100,VALID,0.0169808,VALID,18.8493,VALID,131,VALID,0,
2009-06-11, 01:54:00,VALID,917.969,VALID,0,VALID,100,VALID,0.0339617,VALID,18.8431,VALID,143,VALID,0,
2009-06-11, 01:55:00,VALID,917.967,VALID,0,VALID,100,VALID,-0.0169808,VALID,18.8361,VALID,147,VALID,0,
2009-06-11, 01:56:00,VALID,917.953,VALID,0,VALID,100,VALID,0.0169808,VALID,18.8623,VALID,148,VALID,0.0646802,
2009-06-11, 01:57:00,VALID,917.944,VALID,0,VALID,100,VALID,-0.0849042,VALID,18.87,VALID,142,VALID,0.00364583,
2009-06-11, 01:58:00,VALID,917.92,VALID,0,VALID,100,VALID,-0.0849042,VALID,18.867,VALID,142,VALID,0,
2009-06-11, 01:59:00,VALID,917.898,VALID,0,VALID,100,VALID,-0.101885,VALID,18.8705,VALID,142,VALID,0,
2009-06-11, 02:00:00,VALID,917.875,VALID,0,VALID,100,VALID,-0.0849042,VALID,18.854,VALID,140,VALID,0,
2009-06-11, 02:01:00,VALID,917.869,VALID,0,VALID,100,VALID,-0.101885,VALID,18.8542,VALID,137,VALID,0,
2009-06-11, 02:02:00,VALID,917.852,VALID,0,VALID,100,VALID,-0.101885,VALID,18.8577,VALID,123,VALID,0,
2009-06-11, 02:03:00,VALID,917.854,VALID,0,VALID,100,VALID,-0.101885,VALID,18.8348,VALID,119,VALID,0,
2009-06-11, 02:04:00,VALID,917.855,VALID,0,VALID,100,VALID,-0.0509425,VALID,18.8345,VALID,112,VALID,0,
2009-06-11, 02:05:00,VALID,917.861,VALID,0,VALID,100,VALID,-0.0679233,VALID,18.8178,VALID,121,VALID,0.00334821,
2009-06-11, 02:06:00,VALID,917.859,VALID,0,VALID,100,VALID,-0.0849042,VALID,18.8151,VALID,132,VALID,0.0909598,
2009-06-11, 02:07:00,VALID,917.839,VALID,0,VALID,100,VALID,-0.0849042,VALID,18.7956,VALID,143,VALID,0.0669922,
2009-06-11, 02:08:00,VALID,917.837,VALID,0,VALID,100,VALID,-0.0679233,VALID,18.7859,VALID,138,VALID,0.161086,
2009-06-11, 02:09:00,VALID,917.861,VALID,0,VALID,100,VALID,-0.0679233,VALID,18.7697,VALID,135,VALID,0.317894,
2009-06-11, 02:10:00,VALID,917.877,VALID,0,VALID,100,VALID,-0.0509425,VALID,18.7662,VALID,133,VALID,0.240473,
2009-06-11, 02:11:00,VALID,917.879,VALID,0,VALID,100,VALID,-0.101885,VALID,18.747,VALID,138,VALID,0.457442,
2009-06-11, 02:12:00,VALID,917.884,VALID,0,VALID,100,VALID,-0.101885,VALID,18.7437,VALID,144,VALID,0.0863186,
2009-06-11, 02:13:00,VALID,917.877,VALID,0,VALID,100,VALID,-0.101885,VALID,18.7567,VALID,139,VALID,0.00104167,
2009-06-11, 02:14:00,VALID,917.866,VALID,0,VALID,100,VALID,-0.101885,VALID,18.7664,VALID,139,VALID,0.00694444,
2009-06-11, 02:15:00,VALID,917.864,VALID,0,VALID,100,VALID,-0.101885,VALID,18.7861,VALID,133,VALID,0.137074,
2009-06-11, 02:16:00,VALID,917.856,VALID,0,VALID,100,VALID,-0.0679233,VALID,18.7859,VALID,119,VALID,0,
2009-06-11, 02:17:00,VALID,917.853,VALID,0,VALID,100,VALID,-0.0509425,VALID,18.7697,VALID,125,VALID,0,
2009-06-11, 02:18:00,VALID,917.88,VALID,0,VALID,100,VALID,-0.0849042,VALID,18.7764,VALID,134,VALID,0,
2009-06-11, 02:19:00,VALID,917.885,VALID,0,VALID,100,VALID,-0.118866,VALID,18.7567,VALID,137,VALID,0,
2009-06-11, 02:20:00,VALID,917.901,VALID,0,VALID,100,VALID,-0.101885,VALID,18.747,VALID,139,VALID,0,
2009-06-11, 02:21:00,VALID,917.893,VALID,0,VALID,100,VALID,-0.118866,VALID,18.7407,VALID,141,VALID,0,
2009-06-11, 02:22:00,VALID,917.879,VALID,0,VALID,100,VALID,-0.101885,VALID,18.747,VALID,140,VALID,0,
2009-06-11, 02:23:00,VALID,917.873,VALID,0,VALID,100,VALID,-0.0849042,VALID,18.7534,VALID,146,VALID,0.0785156,
2009-06-11, 02:24:00,VALID,917.864,VALID,0,VALID,100,VALID,-0.101885,VALID,18.7532,VALID,147,VALID,0.129439,
2009-06-11, 02:25:00,VALID,917.843,VALID,0,VALID,100,VALID,-0.118866,VALID,18.7599,VALID,154,VALID,0.278201,
2009-06-11, 02:26:00,VALID,917.816,VALID,0,VALID,100,VALID,-0.0849042,VALID,18.7664,VALID,161,VALID,0.052782,
2009-06-11, 02:27:00,VALID,917.811,VALID,0,VALID,100,VALID,-0.101885,VALID,18.7794,VALID,172,VALID,0,
2009-06-11, 02:28:00,VALID,917.79,VALID,0,VALID,100,VALID,-0.0849042,VALID,18.7921,VALID,142,VALID,0.271528,
2009-06-11, 02:29:00,VALID,917.779,VALID,0,VALID,100,VALID,-0.0849042,VALID,18.8086,VALID,152,VALID,0.0617733,
2009-06-11, 02:30:00,VALID,917.78,VALID,0,VALID,100,VALID,-0.0849042,VALID,18.8281,VALID,155,VALID,0.071841,
2009-06-11, 02:31:00,VALID,917.782,VALID,0,VALID,100,VALID,-0.101885,VALID,18.8445,VALID,142,VALID,0.152902,
2009-06-11, 02:32:00,VALID,917.803,VALID,0,VALID,100,VALID,-0.0849042,VALID,18.8573,VALID,148,VALID,0.0681323,
2009-06-11, 02:33:00,VALID,917.814,VALID,0,VALID,100,VALID,-0.135847,VALID,18.8283,VALID,143,VALID,0.131747,
2009-06-11, 02:34:00,VALID,917.827,VALID,0,VALID,100,VALID,-0.101885,VALID,18.8181,VALID,152,VALID,0.0735085,
2009-06-11, 02:35:00,VALID,917.833,VALID,0,VALID,100,VALID,-0.0169808,VALID,18.8303,VALID,140,VALID,0.243823,
2009-06-11, 02:36:00,VALID,917.826,VALID,0,VALID,100,VALID,0,VALID,18.8401,VALID,149,VALID,0.279018,
2009-06-11, 02:37:00,VALID,917.815,VALID,0,VALID,100,VALID,-0.0169808,VALID,18.8396,VALID,150,VALID,0.22532,
2009-06-11, 02:38:00,VALID,917.804,VALID,0,VALID,100,VALID,0,VALID,18.8366,VALID,149,VALID,0.289621,
2009-06-11, 02:39:00,VALID,917.754,VALID,0,VALID,100,VALID,0,VALID,18.8625,VALID,145,VALID,0.2371,
2009-06-11, 02:40:00,VALID,917.72,VALID,0,VALID,100,VALID,0.0169808,VALID,18.872,VALID,151,VALID,0.212674,
2009-06-11, 02:41:00,VALID,917.719,VALID,0,VALID,100,VALID,0,VALID,18.895,VALID,166,VALID,0.228423,
2009-06-11, 02:42:00,VALID,917.712,VALID,0,VALID,100,VALID,-0.101885,VALID,18.9027,VALID,154,VALID,0.388672,
2009-06-11, 02:43:00,VALID,917.703,VALID,0,VALID,100,VALID,-0.0679233,VALID,18.9024,VALID,149,VALID,0.316497,
2009-06-11, 02:44:00,VALID,917.685,VALID,0,VALID,100,VALID,-0.0849042,VALID,18.9319,VALID,162,VALID,0.697222,
2009-06-11, 02:45:00,VALID,917.682,VALID,0,VALID,100,VALID,-0.101885,VALID,18.9481,VALID,181,VALID,0.938616,
2009-06-11, 02:46:00,VALID,917.671,VALID,0,VALID,100,VALID,-0.0849042,VALID,18.9416,VALID,168,VALID,0.55522,
2009-06-11, 02:47:00,VALID,917.64,VALID,0,VALID,100,VALID,-0.101885,VALID,18.9578,VALID,148,VALID,1.15903,
2009-06-11, 02:48:00,VALID,917.616,VALID,0,VALID,100,VALID,-0.135847,VALID,18.9548,VALID,158,VALID,1.08648,
2009-06-11, 02:49:00,VALID,917.603,VALID,0,VALID,100,VALID,-0.101885,VALID,18.9643,VALID,148,VALID,1.1908,
2009-06-11, 02:50:00,VALID,917.594,VALID,0,VALID,100,VALID,-0.101885,VALID,18.9643,VALID,167,VALID,1.28634,
2009-06-11, 02:51:00,VALID,917.579,VALID,0,VALID,100,VALID,-0.101885,VALID,18.9773,VALID,157,VALID,1.29768,
2009-06-11, 02:52:00,VALID,917.576,VALID,0,VALID,100,VALID,-0.101885,VALID,18.9937,VALID,166,VALID,1.05964,
2009-06-11, 02:53:00,VALID,917.583,VALID,0,VALID,100,VALID,-0.101885,VALID,18.9935,VALID,149,VALID,1.15949,
2009-06-11, 02:54:00,VALID,917.59,VALID,0,VALID,100,VALID,-0.0849042,VALID,19,VALID,160,VALID,1.21221,
2009-06-11, 02:55:00,VALID,917.61,VALID,0,VALID,100,VALID,-0.101885,VALID,18.9935,VALID,152,VALID,1.04383,
2009-06-11, 02:56:00,VALID,917.624,VALID,0,VALID,100,VALID,-0.101885,VALID,18.9868,VALID,151,VALID,1.06213,
2009-06-11, 02:57:00,VALID,917.63,VALID,0,VALID,100,VALID,0.0169808,VALID,18.9758,VALID,147,VALID,1.12021,
2009-06-11, 02:58:00,VALID,917.63,VALID,0,VALID,100,VALID,0.0169808,VALID,18.9726,VALID,147,VALID,1.16694,
2009-06-11, 02:59:00,VALID,917.64,VALID,0,VALID,100,VALID,0,VALID,18.9758,VALID,152,VALID,1.16317,
2009-06-11, 03:00:00,VALID,917.644,VALID,0,VALID,100,VALID,0.0169808,VALID,18.9696,VALID,159,VALID,1.17805,
2009-06-11, 03:01:00,VALID,917.636,VALID,0,VALID,100,VALID,0,VALID,18.9666,VALID,157,VALID,0.865589,
2009-06-11, 03:02:00,VALID,917.644,VALID,0,VALID,100,VALID,0,VALID,18.9561,VALID,159,VALID,1.02248,
2009-06-11, 03:03:00,VALID,917.643,VALID,0,VALID,100,VALID,0,VALID,18.9629,VALID,144,VALID,1.51023,
2009-06-11, 03:04:00,VALID,917.63,VALID,0,VALID,100,VALID,0,VALID,18.9631,VALID,153,VALID,1.17839,
2009-06-11, 03:05:00,VALID,917.62,VALID,0,VALID,100,VALID,0,VALID,18.9596,VALID,153,VALID,1.02939,
2009-06-11, 03:06:00,VALID,917.624,VALID,0,VALID,100,VALID,0,VALID,18.9599,VALID,155,VALID,1.26912,
2009-06-11, 03:07:00,VALID,917.63,VALID,0,VALID,100,VALID,0,VALID,18.9564,VALID,144,VALID,1.06854,
2009-06-11, 03:08:00,VALID,917.632,VALID,0,VALID,100,VALID,0,VALID,18.9402,VALID,142,VALID,0.805596,
2009-06-11, 03:09:00,VALID,917.65,VALID,0,VALID,100,VALID,0,VALID,18.9369,VALID,134,VALID,0.64809,
2009-06-11, 03:10:00,VALID,917.664,VALID,0,VALID,100,VALID,0.0169808,VALID,18.9402,VALID,152,VALID,0.783078,
2009-06-11, 03:11:00,VALID,917.66,VALID,0,VALID,100,VALID,-0.0169808,VALID,18.9337,VALID,166,VALID,0.719815,
2009-06-11, 03:12:00,VALID,917.659,VALID,0,VALID,100,VALID,-0.0169808,VALID,18.9277,VALID,146,VALID,0.568132,
2009-06-11, 03:13:00,VALID,917.633,VALID,0,VALID,100,VALID,-0.0169808,VALID,18.9239,VALID,148,VALID,0.667259,
2009-06-11, 03:14:00,VALID,917.63,VALID,0,VALID,100,VALID,0,VALID,18.9274,VALID,154,VALID,0.455669,
2009-06-11, 03:15:00,VALID,917.614,VALID,0,VALID,100,VALID,0,VALID,18.9202,VALID,146,VALID,0.146341,
2009-06-11, 03:16:00,VALID,917.604,VALID,0,VALID,100,VALID,0,VALID,18.9205,VALID,138,VALID,0.160511,
2009-06-11, 03:17:00,VALID,917.615,VALID,0,VALID,100,VALID,0,VALID,18.9207,VALID,140,VALID,0.427202,
2009-06-11, 03:18:00,VALID,917.609,VALID,0,VALID,100,VALID,0.0169808,VALID,18.911,VALID,151,VALID,0.802431,
2009-06-11, 03:19:00,VALID,917.609,VALID,0,VALID,100,VALID,0.0169808,VALID,18.9272,VALID,175,VALID,0.80971,
2009-06-11, 03:20:00,VALID,917.616,VALID,0,VALID,100,VALID,-0.0169808,VALID,18.9402,VALID,175,VALID,0.702762,
2009-06-11, 03:21:00,VALID,917.611,VALID,0,VALID,100,VALID,0.0339617,VALID,18.9596,VALID,166,VALID,0.265104,
2009-06-11, 03:22:00,VALID,917.606,VALID,0,VALID,100,VALID,0.0509425,VALID,18.9888,VALID,99,VALID,0.18892,
2009-06-11, 03:23:00,VALID,917.601,VALID,0,VALID,100,VALID,0.0169808,VALID,19.002,VALID,97,VALID,0,
2009-06-11, 03:24:00,VALID,917.602,VALID,0,VALID,100,VALID,0.0169808,VALID,18.9951,VALID,97,VALID,0,
2009-06-11, 03:25:00,VALID,917.602,VALID,0,VALID,100,VALID,0,VALID,18.9661,VALID,122,VALID,0.167683,
2009-06-11, 03:26:00,VALID,917.584,VALID,0,VALID,100,VALID,0,VALID,18.9629,VALID,165,VALID,0.0236192,
2009-06-11, 03:27:00,VALID,917.574,VALID,0,VALID,100,VALID,-0.0169808,VALID,18.9529,VALID,164,VALID,0,
2009-06-11, 03:28:00,VALID,917.545,VALID,0,VALID,100,VALID,0,VALID,18.9497,VALID,139,VALID,0.459375,
2009-06-11, 03:29:00,VALID,917.535,VALID,0,VALID,100,VALID,0,VALID,18.9367,VALID,138,VALID,0.606105,
2009-06-11, 03:30:00,VALID,917.521,VALID,0,VALID,100,VALID,0.0169808,VALID,18.9239,VALID,142,VALID,0.513317,
2009-06-11, 03:31:00,VALID,917.51,VALID,0,VALID,100,VALID,0.0169808,VALID,18.888,VALID,142,VALID,0.086128,
2009-06-11, 03:32:00,VALID,917.516,VALID,0,VALID,100,VALID,-0.0169808,VALID,18.8656,VALID,140,VALID,0.503049,
2009-06-11, 03:33:00,VALID,917.519,VALID,0,VALID,100,VALID,0,VALID,18.8398,VALID,137,VALID,0.38548,
2009-06-11, 03:34:00,VALID,917.526,VALID,0,VALID,100,VALID,0,VALID,18.8169,VALID,158,VALID,0.688281,
2009-06-11, 03:35:00,VALID,917.519,VALID,0,VALID,100,VALID,0.0169808,VALID,18.8104,VALID,178,VALID,0.354288,
2009-06-11, 03:36:00,VALID,917.529,VALID,0,VALID,100,VALID,0,VALID,18.8139,VALID,176,VALID,0.617188,
2009-06-11, 03:37:00,VALID,917.519,VALID,0,VALID,100,VALID,0.0849042,VALID,18.8201,VALID,188,VALID,0.585547,
2009-06-11, 03:38:00,VALID,917.492,VALID,0,VALID,100,VALID,0.0169808,VALID,18.8139,VALID,210,VALID,0.573289,
2009-06-11, 03:39:00,VALID,917.473,VALID,0,VALID,100,VALID,0.0169808,VALID,18.8169,VALID,206,VALID,0.0550509,
2009-06-11, 03:40:00,VALID,917.451,VALID,0,VALID,100,VALID,0,VALID,18.7909,VALID,172,VALID,0.483422,
2009-06-11, 03:41:00,VALID,917.429,VALID,0,VALID,100,VALID,-0.0169808,VALID,18.7717,VALID,153,VALID,0.726918,
2009-06-11, 03:42:00,VALID,917.411,VALID,0,VALID,100,VALID,-0.0679233,VALID,18.7437,VALID,150,VALID,0.864397,
2009-06-11, 03:43:00,VALID,917.393,VALID,0,VALID,100,VALID,-0.101885,VALID,18.7015,VALID,147,VALID,1.34484,
2009-06-11, 03:44:00,VALID,917.394,VALID,0,VALID,100,VALID,-0.0849042,VALID,18.6626,VALID,146,VALID,1.35435,
2009-06-11, 03:45:00,VALID,917.393,VALID,0,VALID,100,VALID,-0.101885,VALID,18.6462,VALID,146,VALID,1.31587,
2009-06-11, 03:46:00,VALID,917.377,VALID,0,VALID,100,VALID,-0.101885,VALID,18.6302,VALID,125,VALID,1.08373,
2009-06-11, 03:47:00,VALID,917.398,VALID,0,VALID,100,VALID,-0.0849042,VALID,18.5748,VALID,127,VALID,1.86222,